User: anonymous   Login
Location: ???????
(56.2167°N, 38.0500°E)
Time: 00:27:03
(UTC+00:00)
Language:

Cosmos 1470 - Orbit

View from above orbital plane
View from above orbital plane
View from above satellite
View from above satellite

Ground track
Ground track

The orbit data is extracted from the following two-line orbital elements,

1 14147U 83061A   25189.87350830  .00006774  00000-0  19550-3 0  9991
2 14147  82.4714   7.7749 0009775 150.3731 209.8068 15.35439907 50517
Epoch (UTC): 08 July 2025 20:57:51
Eccentricity: 0.0009775
inclination: 82.4714°
perigee height: 453 km
apogee height: 466 km
right ascension of ascending node: 7.7749°
argument of perigee: 150.3731°
revolutions per day: 15.35439907
mean anomaly at epoch: 209.8068°
orbit number at epoch: 5051

The dashed part of the orbit path shows where the satellite is in the earth's shadow,  

DLR